Clarksville, TX

3:41 AM CDT on July 30, 2016 (GMT -0500)
Clarksville

Weather History for KLBR - January, 2013

Change the Weather History Date:

Thursday, January 24, 2013

  Actual Average (KPRX) Record (KPRX)
Temperature  
Mean Temperature 52 °F -  
Max Temperature 59 °F 52 °F 69 °F (1999)
Min Temperature 44 °F 34 °F 12 °F (2014)
Degree Days  
Heating Degree Days 14    
Growing Degree Days 2 (Base 50)    
Moisture  
Dew Point 46 °F    
Average Humidity 87    
Maximum Humidity 94    
Minimum Humidity 71    
Precipitation  
Precipitation 0.00 in - - ()
Sea Level Pressure  
Sea Level Pressure 30.17 in    
Wind  
Wind Speed 5 mph (East)    
Max Wind Speed 13 mph    
Max Gust Speed 17 mph    
Visibility 7 miles    
Events      
Averages and records for this station are not official NWS values.
T = Trace of Precipitation, MM = Missing Value Source: NWS Daily Summary

Daily Weather History Graph

Daily Weather History Graph

Search for Another Location

Airport or City:

Trip Planner

Search our weather history database for the weather conditions in past years. The results will help you decide how hot, cold, wet, or windy it might be!

Date:

Astronomy

Jan. 24, 2013 Rise Set
Actual Time 7:21 AM CST 5:44 PM CST
Civil Twilight 6:54 AM CST 6:10 PM CST
Nautical Twilight 6:24 AM CST 6:40 PM CST
Astronomical Twilight 5:54 AM CST 7:10 PM CST
Moon 3:48 PM CST (1/24) 5:17 AM CST (1/24)
Length of Visible Light 11h 15m
Length of Day
10h 22m
Waxing Gibbous, 94% of the Moon is Illuminated
Jan 24
Waxing Gibbous
Jan 26
Full
Feb 3
Last Quarter
Feb 10
New
Feb 17
First Quarter

Hourly Weather History & Observations

Time (CST) Temp. Windchill Dew Point Humidity Pressure Visibility Wind Dir Wind Speed Gust Speed Precip Events Conditions
12:15 AM 55.4 °F - 48.2 °F 77% 30.18 in 10.0 mi SE 4.6 mph - N/A   Clear
12:35 AM 55.4 °F - 46.4 °F 72% 30.18 in 10.0 mi ESE 3.5 mph - N/A   Clear
12:55 AM 53.6 °F - 46.4 °F 77% 30.18 in 10.0 mi SE 3.5 mph - N/A   Clear
1:15 AM 53.6 °F - 46.4 °F 77% 30.18 in 10.0 mi SSE 3.5 mph - N/A   Clear
1:55 AM 53.6 °F - 46.4 °F 77% 30.19 in 10.0 mi Calm Calm - N/A   Clear
2:15 AM 51.8 °F - 46.4 °F 82% 30.19 in 10.0 mi Calm Calm - N/A   Clear
2:35 AM 51.8 °F - 46.4 °F 82% 30.18 in 10.0 mi SE 4.6 mph - N/A   Clear
2:55 AM 51.8 °F - 46.4 °F 82% 30.18 in 10.0 mi SE 3.5 mph - N/A   Clear
3:15 AM 51.8 °F - 46.4 °F 82% 30.18 in 10.0 mi SE 3.5 mph - N/A   Clear
3:35 AM 51.8 °F - 46.4 °F 82% 30.17 in 10.0 mi SE 4.6 mph - N/A   Clear
3:55 AM 51.8 °F - 46.4 °F 82% 30.17 in 10.0 mi SE 3.5 mph - N/A   Clear
4:15 AM 51.8 °F - 46.4 °F 82% 30.16 in 10.0 mi SE 4.6 mph - N/A   Clear
4:35 AM 51.8 °F - 46.4 °F 82% 30.16 in 10.0 mi SE 4.6 mph - N/A   Clear
4:55 AM 51.8 °F - 46.4 °F 82% 30.17 in 10.0 mi ESE 3.5 mph - N/A   Clear
5:15 AM 51.8 °F - 46.4 °F 82% 30.17 in 10.0 mi East 3.5 mph - N/A   Clear
5:35 AM 50.0 °F - 46.4 °F 87% 30.17 in 10.0 mi ESE 3.5 mph - N/A   Clear
5:55 AM 50.0 °F - 48.2 °F 94% 30.17 in 10.0 mi East 3.5 mph - N/A   Clear
6:15 AM 50.0 °F - 48.2 °F 94% 30.17 in 7.0 mi Calm Calm - N/A   Scattered Clouds
6:35 AM 50.0 °F - 46.4 °F 87% 30.18 in 5.0 mi Calm Calm - N/A   Mostly Cloudy
6:55 AM 48.2 °F - 46.4 °F 93% 30.19 in 5.0 mi East 3.5 mph - N/A   Overcast
7:15 AM 51.8 °F - 50.0 °F 94% 30.19 in 7.0 mi ENE 3.5 mph - N/A   Overcast
7:35 AM 51.8 °F - 50.0 °F 94% 30.19 in 7.0 mi NE 4.6 mph - N/A   Overcast
7:55 AM 51.8 °F - 50.0 °F 94% 30.20 in 5.0 mi NE 3.5 mph - N/A   Overcast
8:15 AM 51.8 °F - 50.0 °F 94% 30.21 in 5.0 mi NE 3.5 mph - N/A   Overcast
8:35 AM 51.8 °F - 50.0 °F 94% 30.21 in 7.0 mi ENE 3.5 mph - N/A   Overcast
8:55 AM 53.6 °F - 51.8 °F 94% 30.21 in 7.0 mi ENE 5.8 mph - N/A   Overcast
9:15 AM 53.6 °F - 51.8 °F 94% 30.22 in 5.0 mi ENE 5.8 mph - N/A   Overcast
9:35 AM 53.6 °F - 51.8 °F 94% 30.22 in 5.0 mi ENE 3.5 mph - N/A   Overcast
9:55 AM 55.4 °F - 51.8 °F 88% 30.22 in 5.0 mi East 4.6 mph - N/A   Overcast
10:15 AM 55.4 °F - 53.6 °F 94% 30.21 in 5.0 mi East 5.8 mph - N/A   Overcast
10:35 AM 57.2 °F - 53.6 °F 88% 30.21 in 7.0 mi East 5.8 mph - N/A   Overcast
10:55 AM 59.0 °F - 53.6 °F 82% 30.22 in 7.0 mi East 4.6 mph - N/A   Overcast
11:15 AM 59.0 °F - 55.4 °F 88% 30.23 in 7.0 mi ENE 4.6 mph - N/A   Overcast
11:35 AM 59.0 °F - 55.4 °F 88% 30.23 in 5.0 mi ENE 5.8 mph - N/A   Overcast
11:55 AM 59.0 °F - 55.4 °F 88% 30.22 in 5.0 mi ENE 6.9 mph - N/A   Overcast
12:15 PM 55.4 °F - 51.8 °F 88% 30.21 in 1.8 mi ENE 9.2 mph 16.1 mph N/A   Overcast
12:35 PM 51.8 °F - 50.0 °F 94% 30.21 in 1.5 mi ENE 12.7 mph 17.3 mph N/A   Overcast
12:55 PM 50.0 °F - 48.2 °F 94% 30.20 in 1.5 mi ENE 9.2 mph - N/A   Overcast
1:15 PM 50.0 °F - 46.4 °F 87% 30.19 in 1.2 mi ENE 9.2 mph - N/A   Overcast
1:35 PM 50.0 °F - 46.4 °F 87% 30.17 in 1.5 mi East 10.4 mph 16.1 mph N/A   Overcast
1:55 PM 50.0 °F - 46.4 °F 87% 30.16 in 2.0 mi ENE 8.1 mph - N/A   Overcast
2:15 PM 48.2 °F - 46.4 °F 93% 30.15 in 3.0 mi East 10.4 mph - N/A   Overcast
2:35 PM 48.2 °F - 46.4 °F 93% 30.15 in 4.0 mi East 8.1 mph - N/A   Overcast
2:55 PM 48.2 °F - 46.4 °F 93% 30.16 in 4.0 mi ENE 6.9 mph - N/A   Overcast
3:15 PM 48.2 °F - 46.4 °F 93% 30.16 in 4.0 mi ENE 8.1 mph - N/A   Overcast
3:35 PM 48.2 °F - 46.4 °F 93% 30.16 in 3.0 mi ENE 9.2 mph - N/A   Overcast
3:55 PM 48.2 °F - 46.4 °F 93% 30.16 in 2.5 mi ENE 9.2 mph 17.3 mph N/A   Overcast
4:15 PM 46.4 °F 41.5 °F 44.6 °F 93% 30.15 in 2.5 mi ENE 10.4 mph - N/A   Overcast
4:35 PM 46.4 °F 41.1 °F 44.6 °F 93% 30.15 in 2.5 mi ENE 11.5 mph - N/A   Overcast
4:55 PM 46.4 °F 42.9 °F 44.6 °F 93% 30.15 in 4.0 mi East 6.9 mph - N/A   Overcast
5:15 PM 46.4 °F 41.1 °F 44.6 °F 93% 30.14 in 5.0 mi East 11.5 mph 16.1 mph N/A   Overcast
5:35 PM 46.4 °F 41.9 °F 44.6 °F 93% 30.14 in 5.0 mi East 9.2 mph - N/A   Overcast
5:55 PM 46.4 °F 41.9 °F 44.6 °F 93% 30.15 in 7.0 mi East 9.2 mph - N/A   Overcast
6:15 PM 46.4 °F 41.9 °F 44.6 °F 93% 30.15 in 7.0 mi East 9.2 mph - N/A   Overcast
6:35 PM 46.4 °F 42.4 °F 42.8 °F 87% 30.15 in 10.0 mi East 8.1 mph - N/A   Overcast
6:55 PM 46.4 °F 41.5 °F 42.8 °F 87% 30.15 in 7.0 mi East 10.4 mph 16.1 mph N/A   Overcast
7:15 PM 46.4 °F 41.5 °F 42.8 °F 87% 30.15 in 7.0 mi East 10.4 mph 16.1 mph N/A   Overcast
7:35 PM 46.4 °F 41.5 °F 42.8 °F 87% 30.15 in 7.0 mi East 10.4 mph 16.1 mph N/A   Overcast
7:55 PM 46.4 °F 41.9 °F 42.8 °F 87% 30.15 in 7.0 mi East 9.2 mph - N/A   Overcast
8:15 PM 46.4 °F 44.3 °F 42.8 °F 87% 30.15 in 7.0 mi East 4.6 mph - N/A   Overcast
8:35 PM 46.4 °F 42.4 °F 42.8 °F 87% 30.13 in 7.0 mi East 8.1 mph - N/A   Overcast
8:55 PM 46.4 °F 44.3 °F 42.8 °F 87% 30.13 in 10.0 mi East 4.6 mph - N/A   Overcast
9:15 PM 44.6 °F 39.2 °F 41.0 °F 87% 30.12 in 7.0 mi East 10.4 mph - N/A   Overcast
9:35 PM 44.6 °F 41.4 °F 41.0 °F 87% 30.13 in 7.0 mi East 5.8 mph - N/A   Overcast
9:55 PM 44.6 °F 41.4 °F 41.0 °F 87% 30.13 in 10.0 mi East 5.8 mph - N/A   Overcast
10:15 PM 44.6 °F 40.7 °F 39.2 °F 81% 30.13 in 10.0 mi ENE 6.9 mph - N/A   Overcast
10:35 PM 44.6 °F 40.2 °F 37.4 °F 76% 30.13 in 10.0 mi East 8.1 mph - N/A   Overcast
10:55 PM 44.6 °F 40.7 °F 37.4 °F 76% 30.13 in 10.0 mi ENE 6.9 mph - N/A   Overcast
11:15 PM 44.6 °F 40.7 °F 37.4 °F 76% 30.13 in 10.0 mi NE 6.9 mph - N/A   Overcast
11:35 PM 44.6 °F 39.7 °F 35.6 °F 71% 30.13 in 10.0 mi ENE 9.2 mph - N/A   Overcast
11:55 PM 44.6 °F 40.2 °F 35.6 °F 71% 30.13 in 10.0 mi ENE 8.1 mph - N/A   Overcast